| time (UTC) | temp C | wind direction | speed KPH | gust KPH | rain 1hr cm | rain 24hr cm | rain mn cm | humidity % | barometer mb |
| 20260510225503 | 20 | 113 | 9.7 | 33.8 | 0.00 | 0.00 | 0.00 | 40 | 1015.0 |
| 20260510225002 | 20 | 134 | 17.7 | 33.8 | 0.00 | 0.00 | 0.00 | 41 | 1015.0 |
| 20260510224503 | 20 | 104 | 4.8 | 22.5 | 0.00 | 0.00 | 0.00 | 41 | 1015.0 |
| 20260510224002 | 20 | 98 | 8.0 | 22.5 | 0.00 | 0.00 | 0.00 | 39 | 1015.0 |
| 20260510223524 | 20 | 125 | 9.7 | 17.7 | 0.00 | 0.00 | 0.00 | 41 | 1015.0 |
| 20260510223002 | 20 | 121 | 8.0 | 20.9 | 0.00 | 0.00 | 0.00 | 40 | 1015.0 |
| 20260510222503 | 20 | 146 | 12.9 | 20.9 | 0.00 | 0.00 | 0.00 | 40 | 1015.1 |
| 20260510222003 | 20 | 141 | 11.3 | 17.7 | 0.00 | 0.00 | 0.00 | 41 | 1015.2 |
| 20260510221502 | 20 | 108 | 6.4 | 20.9 | 0.00 | 0.00 | 0.00 | 40 | 1015.1 |
| 20260510221006 | 20 | 121 | 14.5 | 20.9 | 0.00 | 0.00 | 0.00 | 40 | 1015.0 |
| 20260510220503 | 19 | 108 | 9.7 | 19.3 | 0.00 | 0.00 | 0.00 | 41 | 1015.0 |
| 20260510220003 | 20 | 93 | 8.0 | 29.0 | 0.00 | 0.00 | 0.00 | 40 | 1015.1 |
| 20260510215503 | 20 | 133 | 16.1 | 29.0 | 0.00 | 0.00 | 0.00 | 41 | 1015.2 |
| 20260510215002 | 19 | 126 | 6.4 | 20.9 | 0.00 | 0.00 | 0.00 | 41 | 1015.2 |
| 20260510214524 | 20 | 99 | 8.0 | 22.5 | 0.00 | 0.00 | 0.00 | 39 | 1015.2 |
| 20260510214003 | 20 | 117 | 6.4 | 22.5 | 0.00 | 0.00 | 0.00 | 40 | 1015.3 |
| 20260510213502 | 20 | 122 | 4.8 | 22.5 | 0.00 | 0.00 | 0.00 | 42 | 1015.3 |
| 20260510213003 | 19 | 119 | 11.3 | 22.5 | 0.00 | 0.00 | 0.00 | 42 | 1015.3 |
| 20260510212502 | 20 | 119 | 11.3 | 19.3 | 0.00 | 0.00 | 0.00 | 41 | 1015.4 |
| 20260510212003 | 19 | 122 | 9.7 | 27.4 | 0.00 | 0.00 | 0.00 | 42 | 1015.6 |
| 20260510211524 | 19 | 95 | 11.3 | 27.4 | 0.00 | 0.00 | 0.00 | 43 | 1015.5 |
| 20260510211045 | 19 | 111 | 11.3 | 19.3 | 0.00 | 0.00 | 0.00 | 42 | 1015.4 |
| 20260510210503 | 19 | 134 | 8.0 | 20.9 | 0.00 | 0.00 | 0.00 | 42 | 1015.5 |
| 20260510210002 | 19 | 84 | 9.7 | 22.5 | 0.00 | 0.00 | 0.00 | 43 | 1015.5 |
| 20260510205503 | 19 | 131 | 16.1 | 22.5 | 0.00 | 0.00 | 0.00 | 41 | 1015.6 |
| 20260510205002 | 20 | 109 | 6.4 | 22.5 | 0.00 | 0.00 | 0.00 | 40 | 1015.6 |
| 20260510204503 | 20 | 128 | 11.3 | 24.1 | 0.00 | 0.00 | 0.00 | 40 | 1015.6 |
| 20260510204002 | 20 | 124 | 9.7 | 24.1 | 0.00 | 0.00 | 0.00 | 39 | 1015.7 |
| 20260510203524 | 21 | 136 | 11.3 | 24.1 | 0.00 | 0.00 | 0.00 | 39 | 1015.6 |
| 20260510203003 | 20 | 182 | 8.0 | 20.9 | 0.00 | 0.00 | 0.00 | 41 | 1015.7 |
| 20260510202503 | 20 | 97 | 9.7 | 20.9 | 0.00 | 0.00 | 0.00 | 40 | 1015.8 |
| 20260510202003 | 20 | 135 | 11.3 | 22.5 | 0.00 | 0.00 | 0.00 | 40 | 1015.8 |
| 20260510201503 | 19 | 132 | 14.5 | 22.5 | 0.00 | 0.00 | 0.00 | 42 | 1015.8 |
| 20260510201003 | 20 | 143 | 9.7 | 16.1 | 0.00 | 0.00 | 0.00 | 41 | 1015.9 |
| 20260510200502 | 20 | 148 | 4.8 | 16.1 | 0.00 | 0.00 | 0.00 | 40 | 1015.9 |
| 20260510200003 | 20 | 108 | 6.4 | 16.1 | 0.00 | 0.00 | 0.00 | 40 | 1016.0 |
| 20260510195502 | 20 | 168 | 3.2 | 22.5 | 0.00 | 0.00 | 0.00 | 41 | 1015.9 |
| 20260510195003 | 20 | 165 | 1.6 | 29.0 | 0.00 | 0.00 | 0.00 | 41 | 1015.9 |
| 20260510194503 | 19 | 134 | 17.7 | 29.0 | 0.00 | 0.00 | 0.00 | 42 | 1015.8 |
| 20260510194003 | 19 | 148 | 4.8 | 17.7 | 0.00 | 0.00 | 0.00 | 41 | 1016.0 |
| 20260510193502 | 18 | 178 | 6.4 | 17.7 | 0.00 | 0.00 | 0.00 | 45 | 1015.9 |
| 20260510193003 | 18 | 120 | 12.9 | 17.7 | 0.00 | 0.00 | 0.00 | 44 | 1015.8 |
| 20260510192503 | 18 | 128 | 6.4 | 14.5 | 0.00 | 0.00 | 0.00 | 46 | 1015.8 |
| 20260510192002 | 18 | 105 | 6.4 | 14.5 | 0.00 | 0.00 | 0.00 | 44 | 1015.9 |
| 20260510191504 | 18 | 122 | 6.4 | 14.5 | 0.00 | 0.00 | 0.00 | 45 | 1016.0 |
| 20260510191002 | 18 | 117 | 3.2 | 14.5 | 0.00 | 0.00 | 0.00 | 46 | 1016.0 |
| 20260510190503 | 18 | 149 | 9.7 | 16.1 | 0.00 | 0.00 | 0.00 | 44 | 1016.0 |
| 20260510190002 | 19 | 136 | 3.2 | 16.1 | 0.00 | 0.00 | 0.00 | 44 | 1016.0 |
| 20260510185503 | 20 | 132 | 9.7 | 17.7 | 0.00 | 0.00 | 0.00 | 44 | 1016.1 |
| 20260510185002 | 19 | 138 | 4.8 | 19.3 | 0.00 | 0.00 | 0.00 | 46 | 1016.1 |
| 20260510184524 | 19 | 162 | 6.4 | 19.3 | 0.00 | 0.00 | 0.00 | 45 | 1016.1 |
| 20260510184023 | 18 | 193 | 3.2 | 17.7 | 0.00 | 0.00 | 0.00 | 46 | 1016.0 |
| 20260510183503 | 18 | 160 | 6.4 | 17.7 | 0.00 | 0.00 | 0.00 | 48 | 1016.1 |
| 20260510183003 | 18 | 152 | 8.0 | 20.9 | 0.00 | 0.00 | 0.00 | 49 | 1016.1 |
| 20260510182503 | 18 | 128 | 3.2 | 20.9 | 0.00 | 0.00 | 0.00 | 49 | 1016.2 |
| 20260510182003 | 18 | 152 | 9.7 | 19.3 | 0.00 | 0.00 | 0.00 | 50 | 1016.3 |
| 20260510181502 | 18 | 149 | 3.2 | 17.7 | 0.00 | 0.00 | 0.00 | 52 | 1016.3 |
| 20260510181003 | 18 | 142 | 8.0 | 17.7 | 0.00 | 0.00 | 0.00 | 52 | 1016.4 |
| 20260510180502 | 16 | 156 | 8.0 | 14.5 | 0.00 | 0.00 | 0.00 | 56 | 1016.3 |
| 20260510180003 | 15 | 142 | 4.8 | 12.9 | 0.00 | 0.00 | 0.00 | 60 | 1016.5 |
| 20260510175503 | 15 | 133 | 3.2 | 11.3 | 0.00 | 0.00 | 0.00 | 59 | 1016.6 |
| 20260510175003 | 15 | 122 | 3.2 | 11.3 | 0.00 | 0.00 | 0.00 | 60 | 1016.6 |
| 20260510174546 | 15 | 141 | 3.2 | 16.1 | 0.00 | 0.00 | 0.00 | 60 | 1016.7 |
| 20260510174003 | 15 | 143 | 4.8 | 16.1 | 0.00 | 0.00 | 0.00 | 60 | 1016.7 |
| 20260510173503 | 15 | 155 | 6.4 | 12.9 | 0.00 | 0.00 | 0.00 | 59 | 1016.6 |
| 20260510173023 | 15 | 154 | 4.8 | 14.5 | 0.00 | 0.00 | 0.00 | 58 | 1016.7 |
| 20260510172524 | 15 | 128 | 6.4 | 14.5 | 0.00 | 0.00 | 0.00 | 57 | 1016.7 |
| 20260510172003 | 16 | 125 | 3.2 | 14.5 | 0.00 | 0.00 | 0.00 | 55 | 1016.6 |
| 20260510171503 | 16 | 132 | 6.4 | 14.5 | 0.00 | 0.00 | 0.00 | 55 | 1016.5 |
| 20260510171002 | 16 | 162 | 6.4 | 12.9 | 0.00 | 0.00 | 0.00 | 57 | 1016.5 |
| 20260510170503 | 15 | 121 | 4.8 | 12.9 | 0.00 | 0.00 | 0.00 | 56 | 1016.5 |
| 20260510170023 | 15 | 135 | 4.8 | 16.1 | 0.00 | 0.00 | 0.00 | 57 | 1016.5 |
| 20260510165503 | 15 | 111 | 6.4 | 16.1 | 0.00 | 0.00 | 0.00 | 56 | 1016.5 |
| 20260510165023 | 16 | 135 | 4.8 | 16.1 | 0.00 | 0.00 | 0.00 | 55 | 1016.4 |
| 20260510164524 | 16 | 106 | 4.8 | 12.9 | 0.00 | 0.00 | 0.00 | 56 | 1016.5 |
| 20260510164002 | 16 | 138 | 4.8 | 14.5 | 0.00 | 0.00 | 0.00 | 56 | 1016.6 |
| 20260510163545 | 16 | 129 | 4.8 | 14.5 | 0.00 | 0.00 | 0.00 | 57 | 1016.6 |
| 20260510163024 | 15 | 138 | 4.8 | 12.9 | 0.00 | 0.00 | 0.00 | 58 | 1016.6 |
| 20260510162502 | 15 | 90 | 3.2 | 12.9 | 0.00 | 0.00 | 0.00 | 59 | 1016.6 |
| 20260510162003 | 15 | 163 | 1.6 | 14.5 | 0.00 | 0.00 | 0.00 | 59 | 1016.6 |
| 20260510161503 | 15 | 137 | 6.4 | 14.5 | 0.00 | 0.00 | 0.00 | 59 | 1016.6 |
| 20260510161003 | 15 | 141 | 3.2 | 12.9 | 0.00 | 0.00 | 0.00 | 60 | 1016.6 |
| 20260510160503 | 15 | 124 | 3.2 | 12.9 | 0.00 | 0.00 | 0.00 | 61 | 1016.6 |
| 20260510160003 | 14 | 116 | 0.0 | 6.4 | 0.00 | 0.00 | 0.00 | 65 | 1016.6 |
| 20260510155502 | 14 | 101 | 1.6 | 6.4 | 0.00 | 0.00 | 0.00 | 65 | 1016.7 |
| 20260510155003 | 14 | 112 | 3.2 | 8.0 | 0.00 | 0.00 | 0.00 | 64 | 1016.7 |
| 20260510154502 | 14 | 132 | 1.6 | 8.0 | 0.00 | 0.00 | 0.00 | 66 | 1016.8 |
| 20260510154003 | 13 | 126 | 3.2 | 8.0 | 0.00 | 0.00 | 0.00 | 67 | 1016.7 |
| 20260510153502 | 13 | 132 | 1.6 | 6.4 | 0.00 | 0.00 | 0.00 | 68 | 1016.7 |
| 20260510153003 | 13 | 106 | 3.2 | 4.8 | 0.00 | 0.00 | 0.00 | 68 | 1016.7 |
| 20260510152502 | 13 | 109 | 1.6 | 4.8 | 0.00 | 0.00 | 0.00 | 69 | 1016.7 |
| 20260510152003 | 12 | 93 | 1.6 | 3.2 | 0.00 | 0.00 | 0.00 | 71 | 1016.6 |
| 20260510151502 | 12 | 91 | 0.0 | 1.6 | 0.00 | 0.00 | 0.00 | 71 | 1016.6 |
| 20260510151024 | 12 | 91 | 0.0 | 1.6 | 0.00 | 0.00 | 0.00 | 70 | 1016.5 |
| 20260510150524 | 12 | 91 | 0.0 | 1.6 | 0.00 | 0.00 | 0.00 | 71 | 1016.6 |
| 20260510150002 | 12 | 91 | 0.0 | 3.2 | 0.00 | 0.00 | 0.00 | 71 | 1016.6 |
| 20260510145503 | 12 | 91 | 0.0 | 3.2 | 0.00 | 0.00 | 0.00 | 72 | 1016.6 |
| 20260510145003 | 12 | 89 | 1.6 | 3.2 | 0.00 | 0.00 | 0.00 | 73 | 1016.6 |
| 20260510144503 | 12 | 86 | 0.0 | 0.0 | 0.00 | 0.00 | 0.00 | 74 | 1016.6 |
| 20260510144002 | 12 | 85 | 0.0 | 1.6 | 0.00 | 0.00 | 0.00 | 75 | 1016.7 |
| 20260510143503 | 12 | 86 | 0.0 | 1.6 | 0.00 | 0.00 | 0.00 | 76 | 1016.7 |
| 20260510143002 | 12 | 85 | 0.0 | 1.6 | 0.00 | 0.00 | 0.00 | 77 | 1016.6 |
| 20260510142503 | 12 | 85 | 0.0 | 1.6 | 0.00 | 0.00 | 0.00 | 77 | 1016.6 |
| 20260510142002 | 12 | 86 | 0.0 | 3.2 | 0.00 | 0.00 | 0.00 | 77 | 1016.6 |
| 20260510141503 | 12 | 85 | 0.0 | 3.2 | 0.00 | 0.00 | 0.00 | 76 | 1016.6 |
| 20260510141002 | 12 | 121 | 0.0 | 0.0 | 0.00 | 0.00 | 0.00 | 76 | 1016.5 |
| 20260510140503 | 12 | 121 | 0.0 | 1.6 | 0.00 | 0.00 | 0.00 | 76 | 1016.4 |
| 20260510140002 | 12 | 121 | 0.0 | 1.6 | 0.00 | 0.00 | 0.00 | 76 | 1016.3 |
| 20260510135503 | 12 | 121 | 0.0 | 1.6 | 0.00 | 0.00 | 0.00 | 77 | 1016.2 |
| 20260510135002 | 12 | 121 | 0.0 | 0.0 | 0.00 | 0.00 | 0.00 | 79 | 1016.2 |
| 20260510134503 | 11 | 121 | 0.0 | 0.0 | 0.00 | 0.00 | 0.00 | 79 | 1016.2 |
| 20260510134002 | 11 | 121 | 0.0 | 0.0 | 0.00 | 0.00 | 0.00 | 79 | 1016.2 |
| 20260510133503 | 11 | 121 | 0.0 | 0.0 | 0.00 | 0.00 | 0.00 | 79 | 1016.1 |
| 20260510132503 | 11 | 121 | 0.0 | 1.6 | 0.00 | 0.00 | 0.00 | 82 | 1016.0 |
| 20260510132002 | 11 | 121 | 0.0 | 0.0 | 0.00 | 0.00 | 0.00 | 84 | 1016.1 |
| 20260510131503 | 11 | 121 | 0.0 | 1.6 | 0.00 | 0.00 | 0.00 | 84 | 1016.1 |
| 20260510131023 | 11 | 121 | 0.0 | 1.6 | 0.00 | 0.00 | 0.00 | 85 | 1016.0 |
| 20260510130503 | 10 | 117 | 0.0 | 1.6 | 0.00 | 0.00 | 0.00 | 86 | 1015.9 |
| 20260510130002 | 10 | 117 | 0.0 | 1.6 | 0.00 | 0.00 | 0.00 | 86 | 1015.9 |
| 20260510125503 | 10 | 117 | 0.0 | 0.0 | 0.00 | 0.00 | 0.00 | 86 | 1015.8 |
| 20260510125002 | 10 | 117 | 0.0 | 0.0 | 0.00 | 0.00 | 0.00 | 86 | 1015.7 |
| 20260510124503 | 10 | 117 | 0.0 | 0.0 | 0.00 | 0.00 | 0.00 | 86 | 1015.7 |
| 20260510123502 | 10 | 117 | 0.0 | 1.6 | 0.00 | 0.00 | 0.00 | 86 | 1015.6 |
| 20260510123003 | 10 | 117 | 0.0 | 1.6 | 0.00 | 0.00 | 0.00 | 86 | 1015.6 |
| 20260510122502 | 10 | 117 | 0.0 | 1.6 | 0.00 | 0.00 | 0.00 | 86 | 1015.5 |
| 20260510122003 | 10 | 117 | 0.0 | 0.0 | 0.00 | 0.00 | 0.00 | 86 | 1015.5 |
| 20260510121503 | 10 | 117 | 0.0 | 0.0 | 0.00 | 0.00 | 0.00 | 86 | 1015.5 |
| 20260510120524 | 10 | 117 | 0.0 | 0.0 | 0.00 | 0.00 | 0.00 | 87 | 1015.4 |
| 20260510120002 | 10 | 117 | 0.0 | 0.0 | 0.00 | 0.00 | 0.00 | 87 | 1015.4 |
| 20260510115503 | 10 | 117 | 0.0 | 0.0 | 0.00 | 0.00 | 0.00 | 87 | 1015.4 |
| 20260510115002 | 10 | 117 | 0.0 | 0.0 | 0.00 | 0.00 | 0.00 | 87 | 1015.4 |
| 20260510114503 | 10 | 117 | 0.0 | 0.0 | 0.00 | 0.00 | 0.00 | 87 | 1015.3 |
| 20260510114002 | 10 | 117 | 0.0 | 0.0 | 0.00 | 0.00 | 0.00 | 87 | 1015.2 |
| 20260510113545 | 10 | 117 | 0.0 | 1.6 | 0.00 | 0.00 | 0.00 | 87 | 1015.2 |
| 20260510113003 | 10 | 117 | 0.0 | 1.6 | 0.00 | 0.00 | 0.00 | 87 | 1015.2 |
| 20260510112502 | 10 | 117 | 0.0 | 1.6 | 0.00 | 0.00 | 0.00 | 87 | 1015.3 |
| 20260510112024 | 10 | 117 | 1.6 | 1.6 | 0.00 | 0.00 | 0.00 | 87 | 1015.3 |
| 20260510111524 | 10 | 117 | 0.0 | 1.6 | 0.00 | 0.00 | 0.00 | 87 | 1015.3 |
| 20260510111003 | 10 | 117 | 0.0 | 3.2 | 0.00 | 0.00 | 0.00 | 87 | 1015.2 |
| 20260510110503 | 10 | 117 | 0.0 | 3.2 | 0.00 | 0.00 | 0.00 | 87 | 1015.2 |
| 20260510110002 | 10 | 105 | 1.6 | 3.2 | 0.00 | 0.00 | 0.00 | 87 | 1015.2 |
| 20260510105524 | 10 | 46 | 0.0 | 1.6 | 0.00 | 0.00 | 0.00 | 87 | 1015.2 |
| 20260510104503 | 10 | 46 | 0.0 | 0.0 | 0.00 | 0.00 | 0.00 | 87 | 1015.1 |
| 20260510103524 | 10 | 46 | 0.0 | 1.6 | 0.00 | 0.00 | 0.00 | 87 | 1015.2 |
| 20260510103003 | 10 | 47 | 0.0 | 0.0 | 0.00 | 0.00 | 0.00 | 87 | 1015.2 |
| 20260510102524 | 10 | 46 | 0.0 | 0.0 | 0.00 | 0.00 | 0.00 | 87 | 1015.2 |
| 20260510102002 | 10 | 46 | 0.0 | 0.0 | 0.00 | 0.00 | 0.00 | 87 | 1015.3 |
| 20260510101503 | 10 | 47 | 0.0 | 3.2 | 0.00 | 0.00 | 0.00 | 87 | 1015.3 |
| 20260510101003 | 10 | 46 | 0.0 | 3.2 | 0.00 | 0.00 | 0.00 | 87 | 1015.3 |
| 20260510100502 | 10 | 48 | 0.0 | 3.2 | 0.00 | 0.00 | 0.00 | 86 | 1015.2 |
| 20260510100003 | 10 | 48 | 1.6 | 3.2 | 0.00 | 0.00 | 0.00 | 86 | 1015.1 |
| 20260510095523 | 10 | 46 | 1.6 | 4.8 | 0.00 | 0.00 | 0.00 | 86 | 1015.1 |
| 20260510095003 | 10 | 40 | 1.6 | 4.8 | 0.00 | 0.00 | 0.00 | 86 | 1015.1 |
| 20260510094502 | 10 | 28 | 1.6 | 4.8 | 0.00 | 0.00 | 0.00 | 85 | 1015.2 |
| 20260510094024 | 10 | 25 | 1.6 | 6.4 | 0.00 | 0.00 | 0.00 | 85 | 1015.2 |
| 20260510093502 | 10 | 26 | 3.2 | 6.4 | 0.00 | 0.00 | 0.00 | 85 | 1015.2 |
| 20260510093024 | 10 | 18 | 3.2 | 8.0 | 0.00 | 0.00 | 0.00 | 85 | 1015.2 |
| 20260510092523 | 10 | 23 | 3.2 | 8.0 | 0.00 | 0.00 | 0.00 | 85 | 1015.2 |
| 20260510092003 | 10 | 24 | 3.2 | 6.4 | 0.00 | 0.00 | 0.00 | 84 | 1015.2 |
| 20260510091502 | 10 | 45 | 1.6 | 6.4 | 0.00 | 0.00 | 0.00 | 84 | 1015.0 |
| 20260510091003 | 10 | 45 | 1.6 | 6.4 | 0.00 | 0.00 | 0.00 | 83 | 1014.9 |
| 20260510090502 | 10 | 48 | 3.2 | 6.4 | 0.00 | 0.00 | 0.00 | 83 | 1014.7 |
| 20260510090024 | 10 | 46 | 3.2 | 6.4 | 0.00 | 0.00 | 0.00 | 83 | 1014.7 |
| 20260510085502 | 10 | 29 | 3.2 | 6.4 | 0.00 | 0.00 | 0.00 | 83 | 1014.8 |
| 20260510085003 | 10 | 27 | 3.2 | 6.4 | 0.00 | 0.00 | 0.00 | 82 | 1014.8 |
| 20260510084502 | 10 | 51 | 1.6 | 6.4 | 0.00 | 0.00 | 0.00 | 82 | 1014.8 |
| 20260510084003 | 10 | 49 | 1.6 | 4.8 | 0.00 | 0.00 | 0.00 | 82 | 1014.7 |
| 20260510083502 | 10 | 62 | 1.6 | 6.4 | 0.00 | 0.00 | 0.00 | 82 | 1014.7 |
| 20260510083003 | 10 | 61 | 1.6 | 6.4 | 0.00 | 0.00 | 0.00 | 82 | 1014.7 |
| 20260510082503 | 10 | 60 | 1.6 | 6.4 | 0.00 | 0.00 | 0.00 | 81 | 1014.6 |
| 20260510082003 | 10 | 58 | 1.6 | 6.4 | 0.00 | 0.00 | 0.00 | 81 | 1014.6 |
| 20260510081502 | 10 | 43 | 1.6 | 6.4 | 0.00 | 0.00 | 0.00 | 80 | 1014.6 |
| 20260510081003 | 10 | 60 | 1.6 | 6.4 | 0.00 | 0.00 | 0.00 | 80 | 1014.6 |
| 20260510080523 | 10 | 54 | 3.2 | 6.4 | 0.00 | 0.00 | 0.00 | 80 | 1014.6 |
| 20260510080003 | 10 | 59 | 1.6 | 6.4 | 0.00 | 0.00 | 0.00 | 79 | 1014.5 |
| 20260510075503 | 10 | 51 | 3.2 | 6.4 | 0.00 | 0.00 | 0.00 | 79 | 1014.5 |
| 20260510075003 | 10 | 48 | 3.2 | 6.4 | 0.00 | 0.00 | 0.00 | 79 | 1014.4 |
| 20260510074503 | 11 | 46 | 3.2 | 9.7 | 0.00 | 0.00 | 0.00 | 79 | 1014.3 |
| 20260510074003 | 11 | 56 | 3.2 | 9.7 | 0.00 | 0.00 | 0.00 | 78 | 1014.3 |
| 20260510073503 | 11 | 54 | 1.6 | 11.3 | 0.00 | 0.00 | 0.00 | 78 | 1014.2 |
| 20260510073002 | 11 | 47 | 3.2 | 12.9 | 0.00 | 0.00 | 0.00 | 78 | 1014.1 |
| 20260510072503 | 11 | 50 | 3.2 | 12.9 | 0.00 | 0.00 | 0.00 | 77 | 1014.1 |
| 20260510072002 | 11 | 59 | 4.8 | 12.9 | 0.00 | 0.00 | 0.00 | 77 | 1014.2 |
| 20260510071503 | 11 | 65 | 3.2 | 11.3 | 0.00 | 0.00 | 0.00 | 77 | 1014.2 |
| 20260510071003 | 11 | 72 | 1.6 | 9.7 | 0.00 | 0.00 | 0.00 | 77 | 1014.2 |
| 20260510070502 | 11 | 78 | 3.2 | 9.7 | 0.00 | 0.00 | 0.00 | 77 | 1014.1 |
| 20260510070003 | 11 | 76 | 1.6 | 9.7 | 0.00 | 0.00 | 0.00 | 76 | 1014.0 |
| 20260510065524 | 11 | 59 | 3.2 | 17.7 | 0.00 | 0.00 | 0.00 | 75 | 1013.9 |
| 20260510065003 | 11 | 59 | 4.8 | 25.7 | 0.00 | 0.00 | 0.00 | 74 | 1013.5 |
| 20260510064502 | 11 | 70 | 8.0 | 25.7 | 0.00 | 0.00 | 0.00 | 72 | 1013.3 |
| 20260510064024 | 11 | 54 | 9.7 | 24.1 | 0.00 | 0.00 | 0.00 | 70 | 1013.1 |
| 20260510063502 | 12 | 57 | 9.7 | 25.7 | 0.00 | 0.00 | 0.00 | 67 | 1013.0 |
| 20260510063003 | 12 | 65 | 12.9 | 32.2 | 0.00 | 0.00 | 0.00 | 64 | 1012.7 |
| 20260510062503 | 12 | 57 | 14.5 | 32.2 | 0.00 | 0.00 | 0.00 | 63 | 1012.5 |
| 20260510062003 | 12 | 51 | 20.9 | 35.4 | 0.00 | 0.00 | 0.00 | 62 | 1012.4 |
| 20260510061503 | 12 | 41 | 19.3 | 40.2 | 0.00 | 0.00 | 0.00 | 62 | 1012.1 |
| 20260510061023 | 12 | 35 | 20.9 | 40.2 | 0.00 | 0.00 | 0.00 | 61 | 1012.1 |
| 20260510060503 | 12 | 35 | 24.1 | 41.8 | 0.00 | 0.00 | 0.00 | 61 | 1012.0 |
| 20260510060003 | 13 | 18 | 27.4 | 43.5 | 0.00 | 0.00 | 0.00 | 60 | 1011.9 |
| 20260510055502 | 13 | 23 | 27.4 | 46.7 | 0.00 | 0.00 | 0.00 | 60 | 1011.8 |
| 20260510054502 | 13 | 18 | 32.2 | 45.1 | 0.00 | 0.00 | 0.00 | 59 | 1011.4 |
| 20260510054003 | 13 | 15 | 27.4 | 66.0 | 0.00 | 0.00 | 0.00 | 59 | 1010.7 |
| 20260510053523 | 13 | 19 | 37.0 | 66.0 | 0.00 | 0.00 | 0.00 | 58 | 1010.1 |
| 20260510053003 | 13 | 9 | 33.8 | 59.5 | 0.00 | 0.00 | 0.00 | 57 | 1009.8 |
| 20260510052502 | 13 | 15 | 33.8 | 62.8 | 0.00 | 0.00 | 0.00 | 57 | 1009.4 |
| 20260510052024 | 13 | 11 | 45.1 | 62.8 | 0.00 | 0.00 | 0.00 | 56 | 1009.1 |
| 20260510051502 | 13 | 12 | 46.7 | 61.2 | 0.00 | 0.00 | 0.00 | 55 | 1008.8 |
| 20260510051003 | 13 | 12 | 38.6 | 59.5 | 0.00 | 0.00 | 0.00 | 55 | 1009.1 |
| 20260510050503 | 13 | 11 | 43.5 | 61.2 | 0.00 | 0.00 | 0.00 | 55 | 1008.9 |
| 20260510050024 | 14 | 8 | 40.2 | 61.2 | 0.00 | 0.00 | 0.00 | 54 | 1009.1 |
| 20260510045503 | 14 | 9 | 35.4 | 59.5 | 0.00 | 0.00 | 0.00 | 53 | 1009.1 |
| 20260510045002 | 14 | 13 | 37.0 | 61.2 | 0.00 | 0.00 | 0.00 | 53 | 1008.9 |
| 20260510044503 | 14 | 17 | 40.2 | 72.4 | 0.00 | 0.00 | 0.00 | 52 | 1008.5 |
| 20260510044003 | 15 | 11 | 43.5 | 72.4 | 0.00 | 0.00 | 0.00 | 52 | 1008.3 |
| 20260510043524 | 15 | 21 | 41.8 | 61.2 | 0.00 | 0.00 | 0.00 | 51 | 1008.5 |
| 20260510043024 | 15 | 15 | 41.8 | 69.2 | 0.00 | 0.00 | 0.00 | 51 | 1008.1 |
| 20260510042503 | 15 | 15 | 46.7 | 69.2 | 0.00 | 0.00 | 0.00 | 51 | 1008.3 |
| 20260510042003 | 15 | 15 | 53.1 | 70.8 | 0.00 | 0.00 | 0.00 | 51 | 1007.9 |
| 20260510041503 | 15 | 19 | 48.3 | 70.8 | 0.00 | 0.00 | 0.00 | 51 | 1007.8 |
| 20260510041002 | 15 | 14 | 45.1 | 62.8 | 0.00 | 0.00 | 0.00 | 51 | 1007.9 |
| 20260510040503 | 15 | 15 | 45.1 | 62.8 | 0.00 | 0.00 | 0.00 | 51 | 1007.6 |
| 20260510040003 | 15 | 16 | 43.5 | 67.6 | 0.00 | 0.00 | 0.00 | 50 | 1007.6 |
| 20260510035524 | 15 | 19 | 41.8 | 67.6 | 0.00 | 0.00 | 0.00 | 49 | 1007.4 |
| 20260510035003 | 16 | 15 | 38.6 | 64.4 | 0.00 | 0.00 | 0.00 | 46 | 1007.6 |
| 20260510034502 | 17 | 14 | 37.0 | 51.5 | 0.00 | 0.00 | 0.00 | 44 | 1007.6 |
| 20260510034003 | 17 | 12 | 16.1 | 30.6 | 0.00 | 0.00 | 0.00 | 40 | 1007.7 |
| 20260510033503 | 16 | 54 | 4.8 | 14.5 | 0.00 | 0.00 | 0.00 | 40 | 1007.6 |
| 20260510033003 | 16 | 133 | 0.0 | 3.2 | 0.00 | 0.00 | 0.00 | 40 | 1007.3 |
| 20260510032503 | 16 | 134 | 0.0 | 4.8 | 0.00 | 0.00 | 0.00 | 39 | 1006.9 |
| 20260510032004 | 16 | 133 | 0.0 | 8.0 | 0.00 | 0.00 | 0.00 | 39 | 1006.4 |
| 20260510031503 | 16 | 133 | 4.8 | 8.0 | 0.00 | 0.00 | 0.00 | 39 | 1006.2 |
| 20260510031024 | 17 | 133 | 4.8 | 6.4 | 0.00 | 0.00 | 0.00 | 38 | 1006.0 |
| 20260510030524 | 17 | 133 | 3.2 | 6.4 | 0.00 | 0.00 | 0.00 | 37 | 1005.9 |
| 20260510030044 | 17 | 133 | 3.2 | 8.0 | 0.00 | 0.00 | 0.00 | 37 | 1005.8 |
| 20260510025503 | 17 | 133 | 4.8 | 11.3 | 0.00 | 0.00 | 0.00 | 36 | 1005.5 |
| 20260510025003 | 17 | 133 | 4.8 | 11.3 | 0.00 | 0.00 | 0.00 | 35 | 1005.4 |
| 20260510024503 | 18 | 133 | 4.8 | 8.0 | 0.00 | 0.00 | 0.00 | 33 | 1005.3 |
| 20260510024003 | 18 | 133 | 4.8 | 6.4 | 0.00 | 0.00 | 0.00 | 32 | 1005.1 |
| 20260510023502 | 18 | 133 | 3.2 | 8.0 | 0.00 | 0.00 | 0.00 | 31 | 1005.0 |
| 20260510023003 | 19 | 133 | 3.2 | 8.0 | 0.00 | 0.00 | 0.00 | 30 | 1004.8 |
| 20260510022502 | 20 | 133 | 6.4 | 8.0 | 0.00 | 0.00 | 0.00 | 28 | 1004.7 |
| 20260510022003 | 20 | 133 | 4.8 | 11.3 | 0.00 | 0.00 | 0.00 | 27 | 1004.6 |
| 20260510021503 | 21 | 137 | 6.4 | 11.3 | 0.00 | 0.00 | 0.00 | 26 | 1004.6 |
| 20260510021002 | 21 | 142 | 1.6 | 3.2 | 0.00 | 0.00 | 0.00 | 24 | 1004.3 |
| 20260510020503 | 21 | 142 | 0.0 | 3.2 | 0.00 | 0.00 | 0.00 | 24 | 1004.2 |
| 20260510020002 | 21 | 142 | 0.0 | 4.8 | 0.00 | 0.00 | 0.00 | 24 | 1004.0 |
| 20260510015503 | 21 | 142 | 0.0 | 6.4 | 0.00 | 0.00 | 0.00 | 24 | 1003.9 |
| 20260510015003 | 21 | 142 | 1.6 | 6.4 | 0.00 | 0.00 | 0.00 | 23 | 1003.8 |
| 20260510014503 | 22 | 142 | 1.6 | 6.4 | 0.00 | 0.00 | 0.00 | 22 | 1003.7 |
| 20260510014003 | 22 | 142 | 3.2 | 6.4 | 0.00 | 0.00 | 0.00 | 21 | 1003.6 |
| 20260510013524 | 22 | 142 | 3.2 | 16.1 | 0.00 | 0.00 | 0.00 | 20 | 1003.6 |
| 20260510013023 | 22 | 142 | 3.2 | 17.7 | 0.00 | 0.00 | 0.00 | 20 | 1003.5 |
| 20260510012524 | 22 | 140 | 11.3 | 32.2 | 0.00 | 0.00 | 0.00 | 20 | 1003.4 |
| 20260510012002 | 22 | 134 | 12.9 | 32.2 | 0.00 | 0.00 | 0.00 | 19 | 1003.4 |
| 20260510011503 | 22 | 114 | 12.9 | 54.7 | 0.00 | 0.00 | 0.00 | 20 | 1003.5 |
| 20260510011002 | 22 | 81 | 14.5 | 57.9 | 0.00 | 0.00 | 0.00 | 22 | 1004.1 |
| 20260510010504 | 21 | 61 | 20.9 | 57.9 | 0.00 | 0.00 | 0.00 | 23 | 1004.2 |
| 20260510010004 | 21 | 30 | 0.0 | 14.5 | 0.00 | 0.00 | 0.00 | 28 | 1005.0 |
| 20260510005523 | 21 | 29 | 8.0 | 16.1 | 0.00 | 0.00 | 0.00 | 28 | 1004.8 |
| 20260510005003 | 21 | 49 | 6.4 | 17.7 | 0.00 | 0.00 | 0.00 | 28 | 1004.8 |
| 20260510004503 | 21 | 55 | 8.0 | 22.5 | 0.00 | 0.00 | 0.00 | 28 | 1004.6 |
| 20260510004002 | 21 | 59 | 11.3 | 22.5 | 0.00 | 0.00 | 0.00 | 28 | 1004.6 |
| 20260510003503 | 21 | 75 | 11.3 | 22.5 | 0.00 | 0.00 | 0.00 | 28 | 1004.5 |
| 20260510003045 | 21 | 58 | 8.0 | 27.4 | 0.00 | 0.00 | 0.00 | 28 | 1004.4 |
| 20260510002502 | 21 | 50 | 14.5 | 29.0 | 0.00 | 0.00 | 0.00 | 27 | 1003.9 |
| 20260510002003 | 22 | 34 | 22.5 | 30.6 | 0.00 | 0.00 | 0.00 | 26 | 1003.5 |
| 20260510001503 | 22 | 43 | 17.7 | 32.2 | 0.00 | 0.00 | 0.00 | 25 | 1003.1 |
| 20260510001023 | 22 | 91 | 6.4 | 32.2 | 0.00 | 0.00 | 0.00 | 24 | 1003.2 |
| 20260510000503 | 23 | 84 | 11.3 | 24.1 | 0.00 | 0.00 | 0.00 | 17 | 1003.1 |
| 20260510000002 | 23 | 65 | 4.8 | 12.9 | 0.00 | 0.00 | 0.00 | 19 | 1002.9 |
| 20260509235503 | 22 | 10 | 0.0 | 24.1 | 0.00 | 0.00 | 0.00 | 20 | 1003.1 |
| 20260509235003 | 22 | 10 | 1.6 | 29.0 | 0.00 | 0.00 | 0.00 | 20 | 1003.3 |
| 20260509234503 | 22 | 32 | 14.5 | 33.8 | 0.00 | 0.00 | 0.00 | 22 | 1003.1 |
| 20260509234003 | 23 | 23 | 24.1 | 35.4 | 0.00 | 0.00 | 0.00 | 22 | 1002.9 |
| 20260509233503 | 23 | 19 | 22.5 | 38.6 | 0.00 | 0.00 | 0.00 | 21 | 1002.9 |
| 20260509233002 | 23 | 25 | 25.7 | 38.6 | 0.00 | 0.00 | 0.00 | 20 | 1002.8 |
| 20260509232545 | 24 | 28 | 11.3 | 32.2 | 0.00 | 0.00 | 0.00 | 18 | 1002.8 |
| 20260509232002 | 24 | 62 | 9.7 | 17.7 | 0.00 | 0.00 | 0.00 | 19 | 1002.6 |
| 20260509231503 | 24 | 91 | 11.3 | 16.1 | 0.00 | 0.00 | 0.00 | 18 | 1002.0 |
| 20260509231003 | 24 | 91 | 6.4 | 19.3 | 0.00 | 0.00 | 0.00 | 18 | 1001.7 |
| 20260509230502 | 24 | 82 | 8.0 | 19.3 | 0.00 | 0.00 | 0.00 | 17 | 1001.7 |
| 20260509230003 | 24 | 91 | 4.8 | 17.7 | 0.00 | 0.00 | 0.00 | 19 | 1001.9 |